Location: St. Louis
(38.6270°N, 90.1994°W)
Time: 23:01:07
(UTC-06:00)

RS-15 - Visible Passes

Search period start: 27 January 2022 00:00
Search period end: 06 February 2022 00:00
Orbit: 1882 x 2162 km, 64.8° (Epoch: 27 January)

Date Brightness Start Highest point End Pass type
(mag) Time Alt. Az. Time Alt. Az. Time Alt. Az.
27 Jan 9.7 01:54:13 17° ESE 01:54:13 17° ESE 01:56:30 10° ESE visible
27 Jan 8.6 04:02:05 39° SSW 04:02:05 39° SSW 04:09:04 10° S visible
27 Jan 8.3 18:05:27 10° SW 18:16:56 73° NW 18:29:08 10° NNE visible
27 Jan 9.5 20:22:35 10° W 20:32:03 27° NNW 20:41:38 11° NNE visible
27 Jan 9.7 22:42:39 10° NW 22:49:24 19° N 22:49:24 19° N visible
28 Jan 10.0 00:56:50 10° NNW 01:20:40 - ESE 00:57:10 11° NNW visible
28 Jan 9.0 03:28:31 31° S 03:28:31 31° S 03:33:38 10° SSE visible
28 Jan 9.5 05:36:23 11° WSW 05:36:23 11° WSW 05:37:08 10° WSW visible
28 Jan 8.2 17:29:19 10° SSW 17:40:50 90° NW 17:53:02 10° NNE visible
28 Jan 9.3 19:45:04 10° W 19:55:08 31° NW 20:05:39 10° NNE visible
28 Jan 9.7 22:05:31 10° NW 22:13:24 19° N 22:14:45 18° N visible
29 Jan 9.9 00:20:43 10° NNW 00:22:30 15° NNW 00:22:30 15° NNW visible
29 Jan 9.4 02:54:55 21° SSE 02:54:55 21° SSE 02:57:51 10° SSE visible
29 Jan 9.4 05:02:46 14° SW 05:02:46 14° SW 05:04:29 10° SW visible
29 Jan 9.1 19:07:47 10° WSW 19:18:23 38° NW 19:29:30 10° NNE visible
29 Jan 9.7 21:28:03 10° NW 21:36:00 19° N 21:40:03 16° NNE visible
29 Jan 9.8 23:44:31 10° NNW 23:47:49 18° NNW 23:47:49 18° NNW visible
30 Jan 9.9 02:21:16 12° SE 02:21:16 12° SE 02:21:47 10° SE visible
30 Jan 9.5 04:29:07 14° SSW 04:29:07 14° SSW 04:30:37 10° SSW visible
30 Jan 8.9 18:30:46 10° WSW 18:41:47 46° NW 18:53:24 10° NNE visible
30 Jan 9.7 20:50:23 10° WNW 20:58:39 20° NNW 21:05:21 13° NNE visible
30 Jan 9.7 23:08:12 10° NNW 23:13:07 20° N 23:13:07 20° N visible
31 Jan10.101:47:33SE01:47:33SE01:20:52NNWvisible
31 Jan 9.7 03:55:23 12° SSW 03:55:23 12° SSW 03:56:05 10° S visible
31 Jan 8.7 17:54:01 10° SW 18:05:21 57° NW 18:17:20 10° NNE visible
31 Jan 9.6 20:12:37 10° WNW 20:21:25 23° NNW 20:30:29 10° NNE visible
31 Jan 9.6 22:31:40 10° NNW 22:38:23 20° N 22:38:23 20° N visible
01 Feb 9.9 00:45:01 10° NNW 00:46:09 13° NNW 00:46:09 13° NNW visible
01 Feb 9.5 19:34:55 10° W 19:44:19 26° NNW 19:54:03 10° NNE visible
01 Feb 9.6 21:54:54 10° NNW 22:03:05 19° N 22:03:39 19° NNE visible
02 Feb 9.8 00:08:57 10° NNW 00:11:25 17° NNW 00:11:25 17° NNW visible
02 Feb10.202:47:44SSE02:47:44SSE02:19:09NWvisible
02 Feb 9.4 18:57:22 10° W 19:07:22 31° NNW 19:17:47 10° NNE visible
02 Feb 9.6 21:17:48 10° NW 21:25:42 19° N 21:28:55 17° NNE visible
02 Feb 9.7 23:32:51 10° NNW 23:36:40 20° NNW 23:36:40 20° NNW visible
03 Feb 9.2 18:20:03 10° WSW 18:30:35 37° NW 18:41:38 10° NNE visible
03 Feb 9.7 20:40:23 10° NW 20:48:18 19° N 20:54:10 14° NNE visible
03 Feb 9.6 22:56:40 10° NNW 23:01:55 22° N 23:01:55 22° N visible
04 Feb 10.0 01:09:16 10° NNW 01:09:40 11° NNW 01:09:40 11° NNW visible
04 Feb 9.0 17:42:59 10° WSW 17:53:57 45° NW 18:05:32 10° NNE visible
04 Feb 9.7 20:02:44 10° WNW 20:10:58 20° NNW 20:19:22 10° NNE visible
04 Feb 9.5 22:20:21 10° NNW 22:27:10 23° N 22:27:10 23° N visible
05 Feb 9.9 00:33:12 10° NNW 00:34:55 16° NNW 00:34:55 16° NNW visible
05 Feb 9.6 19:24:59 10° WNW 19:33:42 22° NNW 19:42:41 10° NNE visible
05 Feb 9.5 21:43:52 10° NNW 21:52:25 22° NNE 21:52:25 22° NNE visible
